Wind_Speed
25 27 28 29 30 30 30 30 31 32 31 30 29 27 25 24 24 24 24 25 24 23 22 21 20 20 19 19 18 17 16 15 14 15 15 16 17 18 19 20 20 21 22 22 23 23 24 25 25 24 23 21 20 17 13 11 12 14 15 15 15 14 14 14 13 14 16 16 14 14 15 13 13 15 15 16 17 18 19 19 20 20 21 22 23
25 26 27 28 29 30 30 30 31 31 31 31 29 27 26 26 25 26 26 26 26 25 23 22 21 21 20 19 19 18 17 16 15 15 15 16 17 18 19 20 21 22 23 23 23 23 24 24 25 25 24 22 20 18 15 13 12 14 16 16 16 15 14 14 14 13 15 16 15 15 16 16 16 17 18 18 19 20 20 21 21 21 22 22 22
25 26 27 28 29 29 30 30 30 31 31 30 29 28 27 26 26 27 27 26 26 26 24 23 22 22 21 20 19 19 18 17 17 16 16 16 17 18 20 21 22 23 23 23 23 24 24 24 24 25 25 23 21 19 17 15 13 14 16 16 16 15 15 14 14 13 14 16 17 16 17 18 18 19 20 20 20 20 21 21 22 22 22 22 23
26 26 27 28 28 29 29 29 29 29 30 29 28 27 27 27 27 28 28 27 27 26 25 24 23 22 21 20 19 18 18 18 18 17 16 16 17 19 20 22 23 24 24 24 24 24 25 25 25 24 24 24 22 20 18 16 14 14 15 16 15 15 15 15 15 15 15 16 17 18 19 20 20 20 20 20 21 21 22 22 22 22 21 22 23
28 28 28 29 28 28 28 28 28 28 28 28 27 26 26 27 28 28 29 28 27 26 26 25 24 23 21 19 19 18 18 18 18 17 17 17 18 19 21 21 22 23 24 24 24 25 25 25 25 24 24 24 23 20 18 17 15 15 15 16 16 16 16 16 16 16 16 16 17 19 20 21 21 22 22 22 22 22 22 22 22 22 21 21 22
29 30 30 30 29 28 28 27 27 27 27 27 26 26 26 27 28 29 29 28 28 27 26 25 23 22 20 20 19 19 19 19 18 18 18 19 19 20 20 20 21 22 23 24 24 25 25 25 25 24 23 23 23 21 19 17 16 15 16 17 17 17 17 16 16 17 17 17 18 19 20 21 22 22 22 23 23 23 23 22 22 23 23 22 23
31 32 32 32 31 30 28 27 27 26 26 26 26 26 26 27 27 28 29 29 28 27 26 25 24 22 21 20 20 20 20 20 19 19 19 20 20 20 20 19 20 22 23 24 25 25 25 24 25 24 23 23 24 22 20 18 16 16 16 17 19 19 17 17 17 18 18 18 19 20 21 22 22 22 23 24 24 23 23 23 22 24 25 25 25
32 33 33 33 32 31 30 29 29 28 27 26 26 26 26 27 27 28 28 29 29 28 26 25 24 23 23 22 21 21 22 21 21 20 20 20 20 20 19 19 20 22 24 25 25 25 24 24 25 25 23 22 23 23 20 19 17 16 17 18 20 20 19 18 19 19 19 19 20 21 22 22 22 22 23 24 24 24 24 25 24 24 26 26 27
34 35 35 34 32 32 32 32 30 29 28 27 26 26 27 28 28 28 29 29 28 28 27 26 26 26 25 24 23 23 23 23 22 21 20 19 19 19 19 20 21 23 24 25 25 23 22 23 24 24 23 23 23 22 21 20 19 17 18 19 21 21 21 20 20 20 21 21 21 22 23 22 22 23 24 24 24 24 25 25 26 26 27 27 27
35 36 35 33 32 33 34 33 32 31 29 28 28 27 28 28 29 29 29 29 28 28 28 29 29 28 26 26 25 25 25 23 21 20 19 19 18 19 20 21 23 24 24 25 24 22 20 21 23 24 23 23 23 22 22 21 20 19 19 20 21 23 23 23 22 22 22 22 21 22 23 23 22 24 24 24 25 26 26 27 27 28 29 28 26
36 36 36 35 34 35 35 34 34 32 31 30 29 29 29 29 30 30 30 30 29 29 30 31 31 29 28 27 27 27 25 22 20 20 19 18 19 20 21 22 24 24 25 25 24 21 20 20 22 24 23 23 23 22 23 23 22 21 21 21 21 23 25 25 24 24 24 23 22 23 24 24 24 25 25 25 26 27 27 28 29 30 30 30 29
36 36 35 35 36 36 35 35 35 34 32 31 31 31 30 30 30 31 31 31 31 31 32 32 32 30 29 29 29 27 24 21 20 20 19 19 19 21 23 24 24 25 25 25 24 22 21 21 22 23 23 22 22 23 24 24 24 23 23 22 22 23 26 28 27 26 26 25 24 24 25 26 26 25 25 26 26 27 28 29 30 31 31 32 33
37 37 36 36 37 36 36 36 36 35 34 33 33 33 32 32 32 32 32 32 32 33 33 34 33 31 31 31 29 27 24 22 21 20 20 20 20 22 25 25 25 25 25 26 26 24 22 22 22 22 22 22 23 25 26 26 25 26 26 25 24 24 27 29 30 29 28 27 26 26 27 28 28 26 26 27 27 28 29 30 30 32 33 34 35
38 38 38 38 38 37 38 37 37 36 35 34 34 34 34 34 33 33 34 34 34 34 35 35 34 32 32 31 29 27 24 23 22 21 21 21 22 24 26 27 26 25 25 27 27 24 23 23 23 21 21 22 23 25 27 27 27 28 28 27 26 26 27 29 31 31 30 30 28 27 28 30 29 27 27 28 28 29 30 31 31 33 35 36 36
36 38 39 39 40 40 40 39 38 37 37 37 36 36 35 35 35 35 36 36 36 36 36 35 34 33 32 31 29 28 25 24 23 22 22 23 23 24 28 29 27 27 27 28 27 24 23 23 23 23 23 23 24 25 27 29 30 30 30 29 28 28 28 30 32 33 32 31 29 29 29 29 29 28 27 28 29 30 31 32 33 35 37 38 37
32 34 36 37 39 40 41 41 41 40 40 39 37 37 37 37 37 37 37 37 37 37 36 36 35 34 33 32 30 28 26 25 24 23 23 23 24 26 29 29 30 31 29 29 29 26 22 22 23 23 24 24 25 26 28 29 31 32 32 30 30 30 30 31 33 34 34 33 31 30 29 29 28 27 27 29 30 31 33 34 35 37 39 40 40
32 33 34 35 36 38 40 41 42 43 43 41 39 38 39 39 39 39 39 39 39 38 38 37 36 35 34 33 32 30 28 26 25 24 24 25 25 27 29 30 33 33 29 28 31 27 21 22 23 23 24 26 27 28 29 30 33 33 32 31 32 32 31 31 34 35 36 34 32 30 28 28 28 28 28 30 30 32 34 35 36 39 42 43 42
33 34 33 33 33 33 35 38 41 43 44 44 42 41 41 41 41 40 40 40 39 39 38 38 37 36 35 34 33 31 28 27 25 25 25 26 27 29 30 32 35 33 27 28 31 27 23 24 24 25 26 27 28 29 30 32 34 33 31 32 34 33 32 32 33 35 36 34 30 27 26 26 27 28 29 30 32 34 35 37 39 42 43 43 43
32 32 32 33 33 32 32 33 35 37 41 44 44 44 43 43 43 42 42 41 40 39 39 39 38 37 35 34 33 31 29 27 26 26 27 28 29 30 30 32 35 34 30 29 30 27 26 26 27 29 30 29 29 31 33 35 36 32 31 34 36 34 32 31 32 34 35 34 31 29 27 26 27 28 29 31 33 35 37 39 41 42 42 42 42
32 30 32 35 36 33 30 29 29 30 35 40 43 45 46 46 46 45 44 43 42 41 40 40 39 37 35 34 32 30 29 28 27 27 28 30 31 31 31 33 36 35 31 30 30 29 29 29 29 30 30 30 31 33 35 37 35 31 31 35 37 35 32 31 31 33 34 33 31 30 29 28 28 29 30 32 34 36 38 40 41 41 41 41 40
34 33 33 36 37 33 28 25 24 23 25 30 36 42 46 48 48 47 46 45 44 43 42 41 40 38 36 34 32 30 30 30 29 29 30 32 32 33 33 34 35 34 32 31 31 30 30 30 29 29 29 31 32 33 34 34 31 30 33 37 37 36 32 30 32 34 34 33 31 31 31 30 29 30 33 35 36 37 39 40 40 40 39 38 37
35 34 34 35 37 34 28 26 26 26 25 26 28 33 40 46 49 49 49 48 47 46 45 43 42 39 36 34 32 32 32 32 30 29 31 33 33 34 34 34 33 33 33 32 31 31 31 29 28 28 30 30 30 31 33 32 30 32 36 37 38 36 31 29 31 32 33 33 33 32 32 31 31 33 36 36 36 37 39 39 38 37 35 34 32
35 34 34 34 35 34 31 30 31 33 32 31 30 29 32 39 46 50 51 51 50 49 48 46 44 41 38 36 35 34 35 34 31 30 32 33 33 34 35 34 33 33 33 32 31 32 31 28 26 28 30 28 28 30 33 32 32 35 37 38 38 35 29 27 28 29 30 31 31 31 30 32 34 35 35 35 35 36 36 35 33 32 31 30 29
36 36 36 35 35 35 35 35 34 35 36 37 37 36 34 35 40 46 51 53 53 52 50 49 47 44 42 40 38 37 36 34 32 31 32 32 33 34 34 33 33 33 33 33 32 32 30 28 28 28 27 27 28 31 33 33 35 38 39 39 36 31 26 25 26 27 28 27 28 29 30 33 34 33 32 33 34 34 32 31 30 29 29 29 28
41 40 41 40 39 39 40 39 39 40 41 41 41 41 40 39 39 41 46 51 53 53 51 50 49 47 45 43 40 38 37 35 32 32 32 32 32 32 33 33 34 34 34 33 33 32 31 30 29 27 27 27 28 29 31 33 36 39 40 37 33 27 24 25 25 25 25 26 27 29 30 31 31 29 30 32 32 31 30 29 28 28 29 29 29
45 46 45 45 44 44 44 45 45 46 47 46 45 45 45 46 44 42 43 46 49 51 52 51 50 49 47 44 42 39 37 35 33 33 33 32 31 31 32 33 34 35 35 34 33 32 30 28 26 25 26 27 27 28 31 34 35 36 36 33 29 25 23 24 24 23 23 26 28 28 28 29 29 29 30 30 29 29 29 28 27 27 29 30 31
44 46 45 45 46 47 49 49 49 50 51 50 50 49 50 50 49 46 43 43 46 50 52 51 50 49 47 44 41 39 37 35 34 34 33 31 31 31 33 35 35 35 34 33 31 30 28 26 24 22 22 24 26 27 28 30 31 31 31 29 26 23 22 23 23 23 24 26 27 28 27 27 27 29 29 28 27 27 27 26 26 26 28 30 30
42 43 43 44 45 47 48 49 51 53 55 55 55 55 56 56 55 51 45 42 44 48 50 50 48 46 43 41 40 38 37 36 34 32 32 32 32 33 34 35 35 35 33 31 30 28 26 24 22 20 20 24 27 26 25 25 26 26 25 24 22 21 21 22 23 24 25 27 27 27 26 26 27 28 28 26 25 25 26 26 26 26 26 27 27
45 45 46 46 47 48 49 51 52 55 56 58 58 58 58 58 58 56 51 48 48 48 46 44 43 41 39 38 38 37 36 35 33 31 32 33 34 34 34 34 35 34 32 30 29 28 26 22 19 18 21 24 26 23 21 20 21 22 22 21 20 21 22 23 24 24 25 27 27 26 26 27 29 28 26 24 23 25 26 27 27 26 25 25 25
48 48 48 49 50 51 52 54 56 58 60 63 63 61 58 57 59 60 55 49 47 48 46 42 38 36 36 36 37 38 36 34 33 33 33 34 34 34 34 34 34 32 29 28 27 26 22 17 15 16 19 20 19 18 16 16 19 21 22 22 22 23 23 23 24 25 25 25 25 26 27 29 28 27 25 23 23 24 24 25 25 25 25 26 27
50 49 48 49 50 52 55 58 61 63 66 66 66 64 59 54 57 61 56 47 43 44 44 42 36 32 35 38 38 38 36 34 34 34 33 33 34 33 32 32 30 27 25 25 24 21 17 14 15 16 16 15 15 15 15 16 18 20 21 22 22 23 23 23 24 24 24 24 25 27 28 28 27 25 24 22 21 21 21 22 23 24 26 27 28
47 47 47 49 51 52 53 55 61 70 77 75 69 66 63 59 60 60 51 45 46 44 39 39 39 37 38 40 39 37 35 32 32 33 33 34 33 31 29 28 26 25 25 25 22 19 16 15 16 17 16 15 14 14 14 16 18 18 18 20 21 22 22 23 23 23 23 24 26 28 27 26 25 24 22 21 20 19 20 21 23 24 26 27 27
41 42 43 45 46 46 47 50 56 64 77 82 73 63 59 59 61 58 48 44 49 48 42 41 43 40 37 37 36 35 33 31 32 34 34 32 30 28 27 25 25 25 25 23 20 19 18 18 18 17 15 14 15 15 17 19 19 17 17 18 20 22 23 22 22 22 24 26 27 27 26 24 23 22 21 20 20 19 20 21 23 24 26 26 25
31 34 36 37 38 35 36 44 47 39 45 61 65 65 66 63 58 54 52 51 51 48 45 43 41 37 36 36 35 34 32 32 33 33 31 28 27 27 27 26 25 24 23 22 21 20 19 19 18 17 15 15 16 17 19 18 18 18 19 20 22 22 21 20 21 23 26 27 26 25 23 22 22 21 20 20 19 20 21 22 24 25 25 25 24
23 26 27 25 25 25 26 33 36 27 19 28 38 47 57 63 59 54 52 52 52 49 46 44 39 36 36 36 33 32 32 32 32 30 29 29 30 29 27 26 24 23 22 23 23 21 20 19 18 17 17 16 16 16 16 16 18 19 20 21 20 19 19 21 23 25 26 26 24 23 22 21 21 20 19 18 19 20 21 23 24 25 25 24 22
12 15 14 9 10 11 12 14 18 18 20 27 29 21 24 40 51 50 42 39 41 43 43 41 38 36 35 33 32 31 31 31 30 28 28 29 28 27 26 24 23 22 23 24 23 21 20 19 18 17 17 16 15 15 16 17 19 19 19 19 18 19 20 22 24 24 24 23 22 22 21 20 20 19 18 18 19 20 22 24 25 24 24 22 20
3 3 5 7 10 8 6 6 6 7 11 18 24 18 6 18 28 30 29 31 34 36 37 36 35 34 32 32 31 30 29 28 26 24 24 26 26 26 25 24 23 23 23 23 22 21 20 19 18 17 16 15 15 16 17 18 18 18 18 18 18 20 21 22 23 22 21 21 21 20 20 19 19 19 19 20 20 21 22 23 24 23 22 21 20
2 1 1 4 5 4 5 7 9 9 10 11 12 12 11 13 16 20 26 30 29 27 28 30 30 28 27 27 26 25 24 23 22 21 23 24 24 23 23 23 23 23 23 23 22 21 20 19 18 17 16 15 15 16 17 17 17 17 18 19 19 21 21 21 21 20 20 20 20 20 20 19 19 19 20 20 20 21 22 23 23 22 21 20 19
5 3 1 2 3 3 3 2 4 7 8 9 10 13 15 16 16 17 20 21 20 19 21 22 22 22 21 20 20 20 19 18 19 20 21 20 20 21 22 23 23 22 22 21 21 20 19 19 17 16 16 15 16 16 16 17 17 18 19 20 20 21 21 20 20 20 20 20 20 20 20 19 19 19 19 20 20 21 21 22 22 21 19 19 19
9 8 6 7 7 6 6 8 8 7 8 9 11 13 13 13 12 11 13 14 16 17 18 17 17 18 18 17 18 18 17 17 18 19 19 19 21 22 22 23 22 21 20 20 20 19 18 17 17 16 16 16 16 16 17 18 19 20 20 21 20 20 19 19 19 20 20 20 20 20 19 19 18 19 19 19 19 20 21 21 21 20 19 19 18
11 11 11 11 11 11 11 11 11 12 12 12 12 12 12 12 13 13 14 15 15 14 15 15 15 16 16 17 17 17 17 18 18 19 20 21 21 22 22 22 21 21 20 20 19 18 17 17 17 17 17 17 17 18 18 20 21 21 21 21 20 19 19 19 19 19 20 20 19 18 17 17 18 18 18 18 19 20 21 21 21 20 20 19 19
15 15 15 15 15 15 15 14 13 12 12 12 11 11 12 13 14 15 15 15 14 12 12 12 12 12 14 16 17 17 18 19 19 20 22 22 22 22 22 21 20 19 18 18 17 17 17 17 18 18 17 17 18 19 21 22 22 22 21 20 19 18 18 18 18 19 19 18 17 15 15 15 17 18 18 18 19 20 20 21 20 20 19 19 19
16 16 15 15 14 14 13 13 12 11 11 10 10 10 10 11 12 11 11 11 11 10 10 10 10 12 14 16 17 18 18 18 19 20 21 21 21 21 20 19 18 18 18 18 18 17 17 17 18 18 18 19 20 22 23 23 22 21 19 19 18 17 18 18 18 18 17 17 15 15 14 15 16 17 17 18 18 19 20 20 20 20 19 19 19
13 14 14 12 10 9 10 10 9 9 9 9 9 9 9 10 10 10 9 8 9 10 9 10 11 13 14 16 17 17 17 17 18 19 20 20 20 20 19 18 18 18 18 18 17 17 16 17 18 19 20 21 22 23 23 21 20 19 18 17 16 17 17 17 17 16 16 16 15 15 15 15 16 16 17 17 18 18 19 19 19 20 20 19 19
11 12 13 12 11 10 9 9 9 10 11 11 11 11 11 11 11 12 11 10 11 12 12 12 13 14 16 16 17 17 17 18 18 19 19 19 19 19 19 18 17 17 17 17 16 16 17 18 19 21 21 22 23 22 21 20 19 18 17 16 17 17 17 16 15 15 15 15 15 15 15 15 15 16 16 17 17 18 18 19 19 19 20 19 19
19 18 16 16 16 16 14 13 13 14 13 13 13 13 13 12 12 11 11 11 13 14 14 14 14 15 16 17 17 18 19 19 19 19 19 19 19 18 18 17 17 17 17 16 16 17 18 19 20 21 22 22 22 20 19 18 18 17 17 17 17 17 15 13 13 13 13 14 14 15 15 15 15 15 16 16 17 18 18 18 19 19 19 19 18
26 25 24 22 21 20 18 16 15 14 14 14 14 14 13 12 11 11 11 13 15 16 15 15 15 16 16 17 18 18 19 18 18 18 18 18 17 17 17 17 17 17 16 16 17 18 19 20 21 21 22 21 20 19 18 18 17 17 18 17 16 15 13 12 12 12 13 13 14 15 15 15 15 15 15 16 17 17 18 18 19 19 19 19 18
23 23 23 22 20 19 18 17 16 15 15 15 15 14 14 14 13 12 12 14 16 16 15 15 15 15 15 16 17 17 17 17 17 17 18 17 17 17 17 17 16 16 16 17 18 18 19 20 21 21 21 20 19 18 18 17 17 17 17 17 15 14 13 12 12 13 13 14 15 15 16 16 15 15 15 15 16 17 18 18 19 19 19 19 18
16 16 17 17 16 17 18 18 18 18 18 18 19 19 19 18 18 17 16 16 16 16 15 15 15 15 15 15 16 17 18 18 18 18 17 17 16 16 16 16 16 16 16 17 18 19 20 20 20 20 20 19 19 19 18 17 17 17 16 16 15 14 13 12 13 13 14 14 15 16 16 16 16 16 15 15 16 16 17 18 18 19 19 19 19
13 14 15 16 17 18 19 19 18 17 17 18 19 19 18 19 20 19 18 19 19 19 18 17 16 16 16 17 17 18 18 18 17 17 17 16 16 16 16 16 16 16 17 17 18 19 20 20 19 19 19 20 20 19 18 17 17 17 17 16 16 14 13 13 13 13 13 14 15 15 16 16 16 16 16 16 16 16 17 17 18 18 19 19 20
10 11 13 14 15 17 18 18 16 16 17 18 18 16 17 19 21 20 19 20 22 21 20 18 17 17 16 17 17 18 18 17 17 17 17 17 16 16 16 16 16 17 18 18 19 20 20 20 20 20 20 20 19 19 18 17 17 17 17 17 17 15 14 14 13 12 12 13 14 15 15 15 16 16 16 17 17 17 17 17 17 18 18 19 20
Wind_Direction
227 228 230 231 232 232 233 232 231 232 233 232 229 225 220 215 210 206 205 206 208 209 210 210 212 215 219 223 227 232 237 241 248 254 260 265 271 277 282 287 292 294 295 299 303 306 307 307 307 308 311 318 325 327 322 302 281 271 270 272 273 272 269 268 265 259 261 265 267 269 274 281 288 292 294 297 302 306 308 307 305 303 303 302 302
226 227 228 230 230 231 232 232 232 232 232 232 229 224 220 215 210 209 207 206 208 211 211 212 213 217 220 224 227 233 239 244 249 255 261 267 271 277 282 286 290 290 292 296 299 300 302 303 303 301 303 308 314 319 318 309 293 278 272 271 272 272 269 268 268 262 259 261 262 265 273 282 289 290 291 292 296 302 306 306 304 304 304 303 302
225 227 229 230 230 231 231 231 231 231 232 231 228 224 219 215 212 210 209 208 209 211 212 213 215 217 220 223 228 234 241 246 251 256 262 268 273 277 281 284 286 287 290 293 294 294 297 301 301 297 295 299 305 311 312 308 300 287 276 272 272 272 270 271 274 269 259 258 262 266 272 281 287 287 286 287 289 295 300 302 302 302 303 302 300
225 226 227 229 230 231 231 230 230 230 230 230 228 224 220 217 214 212 211 211 212 213 214 214 216 218 220 223 228 235 242 248 253 258 264 269 273 276 278 281 283 286 288 290 290 291 294 298 299 293 289 291 298 303 305 305 302 293 281 273 270 269 270 272 275 272 263 258 262 269 276 282 285 283 282 282 284 290 295 297 298 300 300 300 297
224 225 225 227 228 229 229 229 229 229 229 229 227 224 221 219 216 213 213 214 214 215 216 216 217 219 221 224 229 236 243 248 254 259 265 269 271 273 275 279 282 284 286 287 288 291 295 298 296 290 284 286 292 297 299 300 301 298 287 276 268 266 267 269 271 270 268 264 265 272 279 282 283 282 281 282 284 288 293 295 297 300 300 299 298
224 223 224 226 226 228 228 228 229 230 229 229 228 225 223 221 219 216 215 216 216 217 218 218 219 221 222 225 229 234 240 246 251 257 262 266 268 270 272 276 280 283 285 286 288 291 294 297 295 288 281 282 287 291 293 294 297 298 290 276 266 262 263 266 269 271 272 271 272 277 281 283 284 284 284 286 289 291 293 295 299 302 303 303 303
224 224 224 225 225 227 228 228 229 230 230 230 229 227 225 224 222 220 218 218 219 219 220 221 222 224 225 227 229 232 237 241 246 251 256 261 264 267 270 274 278 281 283 284 285 288 291 294 295 288 279 278 283 286 288 289 292 294 289 277 267 262 262 264 267 270 272 273 276 280 284 286 288 288 288 290 293 295 295 298 302 305 306 308 309
224 224 224 225 225 226 227 228 229 230 230 230 230 228 227 226 226 224 222 221 221 221 222 223 224 226 226 227 229 231 235 237 240 245 250 255 261 266 270 273 275 277 279 280 282 285 287 290 292 288 276 273 278 282 283 285 286 289 288 280 270 264 261 263 265 268 271 273 277 282 286 290 291 291 290 292 294 296 297 300 304 306 307 310 313
226 225 225 226 226 226 228 228 229 229 230 230 229 228 228 227 227 226 225 223 222 222 223 224 225 225 225 226 228 230 232 233 236 242 247 253 260 266 270 273 275 276 278 279 279 281 283 285 289 285 272 266 272 276 279 281 282 285 286 282 273 265 261 262 264 267 270 273 278 284 287 291 294 292 291 292 293 295 297 300 304 307 307 309 313
228 227 228 229 229 229 229 230 230 230 230 229 229 228 227 228 228 228 227 225 224 223 223 224 225 225 224 225 227 228 229 230 234 240 247 253 260 267 271 274 276 277 279 280 279 280 281 283 285 281 268 261 265 271 275 278 278 279 281 280 276 270 263 261 263 266 269 273 278 284 288 292 293 292 292 293 294 295 298 302 306 307 306 308 313
230 230 230 232 232 232 232 232 231 231 231 230 230 229 228 228 228 228 228 227 225 224 224 224 225 225 225 226 226 227 226 228 234 241 247 254 261 267 270 272 275 278 282 284 282 281 281 280 278 275 266 260 262 269 273 274 274 273 275 278 277 273 266 261 261 264 268 272 278 283 289 292 291 291 293 294 295 297 300 303 305 306 306 308 312
233 233 233 234 235 235 237 236 234 233 233 232 232 231 229 228 228 229 229 228 226 226 225 225 225 225 225 225 225 225 225 227 233 240 247 254 260 265 266 268 273 279 282 285 283 282 282 278 274 272 268 261 261 266 271 272 271 269 270 274 276 274 268 262 260 263 266 271 276 282 288 291 290 292 294 293 294 297 300 303 304 305 306 308 310
234 235 235 235 237 238 239 239 238 236 234 233 233 233 231 230 229 229 230 229 228 227 226 226 226 225 225 226 225 224 225 228 234 241 247 252 257 262 263 266 272 278 281 283 282 282 283 278 273 272 271 264 260 264 269 271 270 267 267 269 273 273 268 262 260 262 265 268 273 280 287 289 289 291 293 293 296 299 301 303 303 304 306 307 310
234 235 235 235 237 238 239 240 240 238 236 234 234 233 232 232 231 231 231 230 229 228 227 228 226 225 225 225 225 225 226 229 235 242 248 251 255 260 262 265 270 276 279 280 280 280 279 277 276 275 275 271 264 262 266 269 268 266 264 266 270 273 270 264 259 260 263 266 271 277 283 286 288 290 292 294 298 300 302 303 304 304 305 307 310
237 237 236 236 237 238 239 240 240 239 236 234 233 233 232 232 232 232 231 230 229 228 228 229 228 227 227 226 226 226 227 231 237 243 249 252 254 258 261 264 270 275 278 280 278 273 271 277 281 278 277 279 273 263 262 265 266 264 263 265 269 273 274 267 260 258 261 264 269 274 279 284 288 290 292 295 298 300 301 302 304 305 306 308 310
245 243 240 239 239 239 240 241 240 239 237 235 233 232 232 232 233 233 233 231 230 229 229 229 229 228 228 228 228 228 228 232 239 246 251 252 252 256 260 266 271 274 276 278 274 268 268 277 283 278 275 279 278 266 260 261 263 263 264 265 267 271 275 270 259 256 258 262 266 270 275 282 287 289 292 295 298 300 301 303 306 307 308 309 309
250 249 247 245 243 242 242 241 240 238 237 236 234 232 231 232 232 233 233 232 231 229 228 229 230 230 230 230 230 230 230 235 242 248 252 251 250 253 259 265 271 272 274 277 277 276 277 278 281 280 277 278 277 269 261 259 260 263 266 266 265 269 275 270 258 254 257 261 264 267 271 279 285 288 291 295 297 299 301 304 308 308 308 308 307
251 251 252 252 250 248 246 244 241 238 237 237 236 233 231 231 232 233 234 234 232 231 230 229 230 230 231 232 233 232 233 238 245 250 253 250 248 251 257 265 271 273 277 280 281 285 286 281 279 279 277 275 273 266 258 255 258 263 266 266 265 269 275 272 260 254 257 261 266 273 277 280 284 288 292 295 297 297 299 303 306 306 306 306 305
253 253 255 258 258 256 253 250 246 242 241 239 236 233 231 230 231 232 234 234 233 232 232 232 232 232 232 233 234 234 236 240 247 252 253 249 246 249 256 265 271 275 278 282 284 286 285 280 275 274 273 272 270 265 259 256 257 260 264 265 265 269 275 272 261 256 259 263 268 276 282 283 286 290 293 294 296 297 300 303 306 306 307 307 306
254 255 257 258 258 256 254 255 254 249 247 245 241 236 232 230 230 231 233 234 234 233 233 233 233 233 233 234 234 234 237 243 248 252 252 248 245 249 257 265 271 276 281 286 288 287 284 280 276 274 273 269 267 266 262 258 257 259 263 264 264 268 272 269 259 256 259 262 268 276 283 286 287 288 290 292 295 299 302 305 307 308 308 306 305
255 258 260 259 257 253 252 256 256 251 248 246 244 240 236 233 231 231 232 233 233 233 233 234 234 234 233 234 234 235 239 243 248 251 250 246 244 249 257 265 271 277 281 285 287 287 285 281 279 277 272 266 264 264 261 257 255 257 260 261 263 268 271 264 257 257 259 263 270 277 283 287 288 287 289 292 295 299 303 305 306 306 305 303 302
252 255 258 259 255 251 252 258 259 258 256 252 248 244 241 238 235 233 232 233 233 233 234 234 235 235 234 234 234 236 240 244 248 249 247 244 245 250 259 265 271 276 281 285 288 288 284 280 276 276 273 266 260 258 256 254 252 255 258 259 262 267 268 260 256 261 263 265 270 277 282 286 286 287 290 294 297 302 304 304 303 302 302 301 301
250 254 257 257 252 248 252 259 259 259 260 259 256 251 244 241 238 236 234 233 232 232 233 234 235 235 235 235 236 237 241 244 247 246 245 245 247 253 260 267 271 276 282 287 288 286 281 276 272 269 267 261 255 253 253 251 251 254 257 257 260 267 267 259 258 263 264 265 270 276 281 283 285 289 294 298 301 303 303 301 301 301 301 302 302
247 249 252 252 249 247 253 258 257 256 257 257 258 257 251 245 240 237 235 235 234 232 232 233 235 235 235 235 236 238 241 243 244 244 245 247 251 256 263 269 273 277 282 285 285 282 278 272 268 264 262 258 255 255 254 252 252 254 254 255 260 267 266 262 262 264 263 266 271 275 279 284 290 295 298 299 300 301 300 300 301 302 302 303 304
246 245 245 247 248 249 252 254 254 254 254 254 255 256 255 252 246 239 235 234 234 234 232 231 232 234 235 235 236 238 240 241 240 241 244 248 254 261 266 269 273 277 281 284 284 281 277 273 269 264 261 261 262 263 261 258 257 257 256 259 266 267 260 259 262 261 262 266 270 274 282 290 296 299 299 299 300 300 300 301 302 303 304 304 304
250 249 247 247 247 247 249 250 250 251 252 253 253 253 254 255 252 247 240 236 234 234 232 230 231 232 233 235 236 237 237 237 237 239 243 250 259 264 266 269 273 278 282 283 283 280 278 277 272 263 257 258 263 267 267 265 263 262 262 264 267 261 255 258 260 260 264 270 275 282 291 296 298 298 299 299 299 298 299 301 301 302 301 301 301
251 252 251 249 248 247 246 245 245 246 248 251 252 252 252 253 253 250 245 240 237 234 232 230 229 231 232 233 234 234 234 234 235 239 246 257 263 263 265 269 274 279 282 282 279 277 274 272 269 264 260 261 266 270 271 271 269 265 262 261 258 252 253 258 261 264 271 278 284 289 293 295 297 299 299 298 295 293 295 297 297 297 297 298 299
254 254 253 252 250 248 247 245 245 245 246 247 249 250 250 251 252 251 248 245 240 236 232 230 228 228 230 231 231 231 232 232 235 242 251 259 261 260 265 272 277 280 281 278 274 271 269 264 263 268 271 271 273 275 275 272 267 259 255 254 253 250 253 259 264 270 277 284 288 291 293 296 299 299 299 297 294 293 294 295 297 298 298 299 300
261 261 259 257 256 255 253 251 249 249 248 247 247 247 249 251 253 253 251 249 248 244 238 233 229 226 224 225 228 229 230 232 236 244 252 256 258 261 268 275 278 278 277 273 269 269 269 265 264 266 268 270 272 273 270 265 258 253 249 248 248 252 258 262 268 275 282 287 290 293 296 298 299 299 299 298 297 297 298 298 300 302 303 304 306
265 265 263 262 260 259 256 255 254 253 252 251 250 249 247 248 251 254 253 250 251 252 246 239 234 227 219 218 222 226 227 230 236 244 251 255 258 263 270 275 277 274 271 269 268 267 267 266 265 266 268 268 265 260 256 253 250 249 248 247 248 254 260 266 272 279 284 287 289 292 295 298 300 301 301 300 300 300 299 299 301 305 307 309 310
267 267 266 266 264 262 260 260 258 255 252 249 249 249 247 244 245 249 250 247 250 256 251 239 233 226 215 213 218 222 225 231 239 247 252 254 258 265 272 274 273 268 264 263 262 260 257 257 260 265 268 262 252 249 255 259 254 249 250 252 254 257 264 270 276 281 284 286 289 293 296 299 301 301 301 300 300 299 298 301 304 306 309 310 312
268 268 268 267 265 265 264 264 264 262 257 252 248 245 243 242 241 241 241 240 245 252 249 234 223 215 210 213 219 223 227 237 245 248 251 255 261 268 272 269 264 258 256 255 253 247 244 247 253 259 259 254 250 253 259 263 261 257 256 257 257 262 269 275 279 281 284 288 292 295 299 301 301 300 300 300 300 301 303 305 306 307 309 310 311
269 268 269 268 267 268 266 264 265 258 246 241 242 242 238 238 236 232 229 230 235 241 243 233 221 211 207 212 219 225 233 244 250 250 252 257 264 268 267 261 256 252 249 246 242 238 240 244 249 253 252 250 250 248 246 251 259 264 263 261 264 269 273 275 278 282 287 291 294 297 300 300 298 297 298 300 303 304 305 305 306 307 308 309 309
282 281 280 277 273 270 266 265 268 257 227 222 230 234 234 237 235 225 221 226 232 235 234 226 215 208 209 216 223 229 237 244 248 251 256 262 266 266 261 255 250 246 242 237 234 236 242 247 247 244 240 238 240 240 242 249 258 262 263 265 268 271 273 276 280 285 289 293 296 298 298 296 294 295 298 302 303 304 303 304 307 309 310 309 308
299 292 286 275 262 258 256 257 265 268 241 222 221 216 216 222 224 217 216 225 232 230 221 212 208 209 215 222 229 235 240 244 248 256 264 268 267 263 257 251 247 242 236 232 233 237 242 242 238 234 233 234 238 243 249 255 258 260 262 265 267 268 272 277 282 286 290 293 295 296 294 292 293 296 299 302 303 302 304 306 309 311 310 308 307
294 284 272 242 212 224 239 241 243 245 237 237 241 229 193 192 199 202 203 209 212 208 204 203 209 214 219 226 234 240 245 249 252 258 263 263 260 256 252 250 246 238 231 231 235 239 240 237 234 233 236 241 247 252 256 258 259 261 262 263 264 267 273 279 283 287 291 293 293 293 293 293 295 298 300 302 303 304 307 309 310 310 308 307 309
256 250 218 167 143 135 123 121 147 171 184 211 236 251 204 161 174 181 180 181 185 190 196 204 213 219 224 231 238 243 248 251 252 253 252 251 251 251 249 244 237 231 230 233 237 238 237 235 234 237 242 249 253 254 254 255 256 258 259 260 264 271 277 281 286 290 293 293 293 293 294 295 297 299 301 302 304 307 310 311 309 308 307 307 310
186 112 145 175 160 135 108 110 126 136 132 141 166 178 170 165 170 174 178 182 186 193 203 211 218 226 233 236 237 241 245 249 250 249 245 243 244 244 239 234 231 232 234 235 235 234 232 232 236 242 247 250 250 248 248 250 252 255 258 262 269 276 281 286 291 295 296 294 293 294 294 295 295 297 299 302 307 310 311 309 307 307 307 308 308
203 188 183 226 221 221 232 209 164 160 167 176 181 183 187 191 194 195 196 197 200 210 220 224 229 236 239 238 237 239 242 243 242 240 236 235 234 231 228 228 231 234 234 232 231 230 231 234 240 245 247 246 244 244 245 248 251 256 262 269 276 282 285 289 294 295 294 293 293 293 292 291 292 295 299 304 308 310 309 308 307 307 307 305 305
226 218 219 229 237 241 240 238 237 233 223 218 217 213 208 207 211 215 216 216 220 228 232 233 234 237 239 240 242 242 238 233 230 229 229 229 228 226 225 226 228 228 228 227 228 230 234 238 241 243 242 241 240 242 246 250 255 262 269 275 280 283 286 289 291 290 289 290 291 290 288 289 292 298 302 306 308 307 307 307 307 306 305 303 303
242 243 241 236 235 241 246 245 244 243 241 240 238 234 232 236 242 242 239 237 235 232 229 230 234 236 240 244 246 240 230 224 223 224 225 225 223 222 222 224 225 226 227 228 230 233 235 236 237 237 238 240 242 246 251 256 262 269 274 277 280 282 284 286 286 285 287 289 289 288 289 292 296 299 302 304 304 305 306 306 305 304 304 302 302
248 250 250 248 246 247 250 254 255 251 247 247 246 243 241 243 246 246 244 241 235 231 230 233 236 239 243 243 238 229 223 221 221 222 223 222 222 223 224 225 227 229 229 230 231 230 229 231 233 236 240 245 249 253 258 262 267 272 275 276 279 281 282 283 284 285 288 289 288 288 289 291 293 295 297 300 303 304 304 304 304 303 301 300 301
251 250 248 247 249 251 252 251 252 254 255 253 250 246 245 245 245 245 242 240 239 242 243 240 236 238 238 233 226 222 222 223 224 224 224 224 225 226 228 228 229 229 230 230 229 227 227 231 236 240 245 249 252 257 262 266 270 273 275 277 279 281 282 283 284 286 287 287 286 285 285 286 288 291 295 300 302 303 303 304 303 302 300 299 300
251 251 250 244 240 245 250 247 243 245 247 249 250 250 250 251 250 250 252 253 250 248 247 243 235 229 226 224 223 223 222 222 224 225 226 227 228 230 230 230 229 229 228 227 226 227 229 234 239 244 249 252 256 261 265 268 271 273 276 279 282 282 283 283 284 285 285 283 282 283 285 288 291 294 297 300 302 302 303 304 302 299 299 299 301
257 257 254 248 245 249 251 251 253 256 256 257 257 254 251 252 254 254 254 253 245 240 240 238 229 220 216 218 220 221 221 222 224 226 228 230 232 232 231 229 227 225 224 225 226 229 233 238 243 248 252 256 259 263 265 269 272 275 278 281 282 282 280 278 278 279 280 279 280 284 287 291 294 296 298 300 301 301 302 301 299 298 298 299 301
260 262 260 255 253 255 255 256 260 261 258 255 256 255 253 254 257 256 252 245 237 231 228 224 218 215 215 217 219 221 223 224 226 228 230 231 232 232 230 227 224 223 223 226 230 235 240 245 250 253 256 259 261 263 267 271 274 277 278 279 278 276 272 269 269 273 277 281 286 290 292 293 295 296 297 299 299 299 299 298 297 297 298 298 300
262 262 261 257 253 252 251 250 251 253 249 246 251 256 255 249 247 248 245 238 231 226 221 216 214 213 214 218 223 226 228 229 230 231 230 229 229 230 228 224 222 222 225 231 237 243 247 252 254 256 258 259 262 265 268 271 272 274 275 276 275 274 273 273 274 277 281 286 290 293 295 295 295 296 297 298 298 297 298 297 297 297 298 298 298
260 259 255 249 245 244 244 244 247 253 252 247 245 248 249 246 243 242 238 233 229 224 217 213 214 215 219 225 230 233 234 235 233 231 229 228 228 228 226 223 223 225 230 237 244 248 252 254 255 257 259 261 264 266 267 268 270 272 274 275 276 278 280 281 280 281 284 288 291 292 293 293 293 294 294 295 296 297 298 298 298 298 297 296 295
253 251 247 242 241 241 241 241 245 249 252 251 246 241 238 238 239 236 231 228 226 223 218 218 221 223 226 231 235 238 238 236 232 231 231 230 228 227 227 227 229 231 235 241 247 251 254 255 257 258 260 262 264 265 267 269 272 273 273 274 276 276 277 278 279 281 284 287 290 291 292 293 293 292 291 292 294 295 296 297 298 298 297 295 293
251 248 244 243 242 240 240 241 242 241 242 247 247 241 232 227 225 223 222 222 222 222 223 227 227 225 225 228 231 234 236 233 230 231 232 231 229 231 233 233 235 236 239 243 247 251 254 256 257 258 259 260 262 265 269 271 273 274 273 273 272 272 272 273 274 277 281 285 289 291 293 294 293 292 290 290 291 292 293 295 297 296 296 294 291
250 246 244 245 243 239 237 238 240 240 243 248 253 257 249 233 219 211 213 220 223 224 226 227 225 223 224 226 226 228 230 230 229 230 233 233 235 236 236 236 238 240 243 246 248 250 252 254 254 254 254 257 261 266 270 271 272 273 273 273 273 273 273 273 273 276 282 286 288 291 293 294 295 294 292 290 289 289 290 292 293 293 293 291 290
Height
3152 3153 3155 3156 3158 3159 3161 3163 3165 3166 3168 3170 3171 3172 3174 3176 3178 3180 3181 3183 3185 3187 3189 3190 3192 3193 3194 3195 3196 3196 3197 3198 3198 3198 3199 3199 3200 3200 3199 3199 3199 3198 3198 3197 3196 3196 3195 3194 3193 3193 3193 3193 3192 3192 3192 3191 3190 3190 3190 3190 3190 3189 3189 3189 3189 3189 3188 3188 3188 3187 3187 3187 3186 3185 3185 3184 3183 3183 3182 3181 3180 3180 3179 3178 3177
3149 3151 3152 3154 3155 3157 3159 3160 3162 3164 3165 3167 3168 3170 3172 3174 3176 3177 3179 3181 3183 3185 3186 3188 3190 3191 3192 3193 3194 3194 3195 3195 3196 3196 3197 3197 3198 3198 3198 3197 3197 3196 3195 3195 3194 3193 3192 3192 3191 3190 3190 3190 3190 3190 3190 3189 3189 3188 3188 3188 3188 3188 3187 3187 3187 3188 3187 3187 3187 3186 3185 3185 3185 3184 3183 3182 3182 3181 3180 3179 3178 3177 3176 3175 3175
3147 3149 3150 3151 3153 3154 3156 3157 3159 3161 3162 3164 3166 3168 3170 3172 3173 3175 3177 3179 3180 3182 3184 3186 3187 3188 3190 3191 3192 3192 3192 3193 3194 3194 3195 3195 3196 3196 3195 3195 3194 3193 3193 3192 3192 3191 3190 3190 3189 3188 3188 3188 3188 3187 3187 3187 3187 3186 3186 3186 3186 3185 3185 3185 3185 3186 3186 3185 3185 3185 3184 3184 3183 3183 3181 3181 3180 3179 3179 3178 3177 3176 3175 3173 3172
3145 3147 3148 3149 3150 3152 3153 3155 3156 3158 3159 3161 3163 3166 3168 3169 3171 3173 3175 3176 3178 3180 3182 3183 3185 3186 3187 3188 3189 3190 3190 3191 3191 3192 3192 3193 3193 3193 3193 3192 3191 3191 3191 3190 3189 3189 3188 3188 3187 3186 3185 3185 3185 3185 3185 3184 3184 3184 3184 3183 3183 3183 3183 3183 3183 3183 3184 3184 3183 3183 3182 3182 3181 3181 3180 3179 3178 3177 3177 3176 3175 3174 3173 3172 3170
3142 3144 3145 3146 3148 3149 3150 3152 3153 3155 3157 3159 3161 3163 3165 3167 3169 3171 3172 3174 3176 3178 3179 3181 3182 3183 3185 3186 3187 3188 3188 3188 3189 3189 3190 3190 3191 3190 3190 3190 3189 3188 3188 3188 3187 3186 3186 3185 3185 3184 3183 3183 3183 3182 3182 3182 3181 3181 3181 3181 3181 3181 3181 3181 3181 3181 3182 3182 3182 3181 3180 3180 3179 3178 3177 3176 3175 3175 3174 3173 3172 3171 3171 3170 3168
3140 3141 3143 3144 3145 3146 3148 3149 3151 3152 3154 3157 3159 3161 3163 3165 3167 3168 3170 3172 3174 3175 3177 3178 3180 3181 3183 3184 3184 3185 3185 3186 3186 3187 3187 3187 3187 3187 3187 3187 3186 3186 3185 3185 3184 3184 3183 3183 3182 3181 3181 3181 3181 3180 3180 3179 3179 3179 3179 3179 3178 3178 3179 3179 3179 3179 3179 3179 3179 3178 3178 3177 3176 3175 3174 3172 3172 3171 3170 3170 3169 3168 3167 3167 3166
3137 3139 3140 3141 3143 3144 3145 3147 3148 3150 3152 3155 3157 3159 3161 3162 3164 3166 3168 3170 3171 3173 3175 3176 3177 3179 3180 3180 3181 3182 3183 3183 3184 3184 3184 3184 3184 3184 3184 3184 3184 3183 3182 3182 3181 3181 3181 3180 3179 3178 3178 3178 3178 3178 3177 3177 3177 3176 3176 3176 3176 3176 3176 3176 3176 3176 3176 3176 3176 3176 3175 3174 3173 3172 3171 3169 3168 3167 3166 3166 3166 3164 3163 3163 3162
3134 3136 3137 3139 3140 3141 3143 3145 3146 3148 3150 3152 3154 3156 3158 3160 3162 3164 3166 3167 3169 3171 3172 3174 3175 3176 3176 3177 3178 3179 3179 3180 3181 3181 3182 3182 3181 3181 3181 3181 3181 3180 3179 3179 3178 3178 3178 3177 3177 3176 3175 3175 3176 3175 3175 3175 3174 3174 3174 3173 3173 3173 3173 3174 3173 3173 3173 3173 3173 3172 3172 3171 3170 3169 3168 3166 3165 3164 3163 3162 3162 3161 3160 3159 3158
3131 3133 3134 3136 3137 3139 3141 3142 3144 3146 3148 3150 3151 3153 3155 3157 3159 3161 3163 3165 3167 3169 3170 3171 3172 3172 3173 3174 3175 3175 3176 3177 3178 3179 3179 3179 3179 3178 3178 3178 3177 3177 3176 3176 3175 3175 3175 3175 3174 3173 3173 3173 3173 3172 3172 3172 3171 3171 3171 3171 3170 3170 3170 3170 3170 3170 3170 3170 3170 3170 3169 3168 3168 3166 3165 3163 3162 3161 3160 3159 3158 3157 3156 3156 3156
3128 3130 3131 3133 3135 3137 3138 3140 3142 3144 3145 3147 3149 3150 3152 3154 3156 3158 3160 3162 3164 3166 3167 3168 3168 3169 3170 3170 3171 3172 3173 3174 3175 3176 3176 3176 3176 3175 3175 3175 3174 3173 3173 3172 3172 3172 3172 3171 3171 3170 3169 3169 3169 3169 3169 3169 3169 3168 3168 3168 3168 3167 3167 3167 3167 3167 3167 3167 3167 3167 3166 3166 3165 3163 3162 3161 3159 3158 3157 3156 3155 3154 3153 3153 3153
3124 3126 3128 3130 3132 3134 3135 3137 3139 3141 3143 3144 3146 3148 3149 3151 3153 3155 3157 3159 3161 3162 3163 3164 3165 3166 3166 3167 3168 3169 3170 3171 3172 3173 3173 3173 3173 3172 3172 3171 3171 3170 3169 3169 3168 3168 3168 3168 3167 3167 3166 3166 3167 3166 3166 3166 3166 3165 3165 3165 3165 3164 3164 3164 3164 3164 3164 3164 3164 3164 3163 3163 3162 3160 3159 3157 3156 3155 3153 3152 3151 3150 3149 3148 3149
3121 3124 3126 3128 3129 3131 3132 3134 3136 3138 3140 3142 3143 3145 3147 3148 3150 3151 3153 3155 3157 3158 3159 3160 3161 3162 3163 3164 3164 3165 3167 3168 3169 3169 3170 3170 3170 3169 3168 3168 3167 3167 3166 3165 3164 3164 3164 3164 3164 3163 3163 3163 3164 3163 3163 3162 3162 3162 3162 3162 3162 3161 3161 3161 3161 3161 3161 3160 3160 3160 3160 3159 3158 3157 3155 3154 3153 3152 3151 3150 3148 3147 3146 3145 3145
3119 3120 3123 3124 3125 3127 3129 3130 3133 3135 3137 3139 3140 3142 3143 3145 3146 3147 3149 3151 3153 3154 3155 3156 3158 3159 3159 3160 3161 3163 3164 3165 3166 3166 3166 3167 3167 3166 3165 3164 3164 3163 3163 3161 3160 3160 3159 3159 3160 3160 3160 3160 3160 3160 3159 3159 3159 3159 3159 3159 3158 3158 3157 3158 3158 3158 3157 3157 3157 3157 3157 3155 3154 3154 3152 3151 3150 3149 3148 3147 3145 3144 3142 3141 3141
3115 3117 3119 3120 3122 3123 3125 3126 3129 3131 3133 3135 3136 3138 3140 3141 3143 3144 3145 3147 3148 3149 3151 3152 3154 3155 3156 3157 3158 3160 3161 3161 3162 3162 3163 3163 3163 3162 3161 3160 3160 3159 3159 3157 3156 3155 3155 3155 3156 3157 3157 3156 3156 3156 3156 3156 3155 3155 3155 3155 3155 3155 3155 3155 3155 3154 3153 3153 3153 3154 3153 3152 3151 3151 3149 3147 3147 3146 3144 3143 3142 3140 3139 3138 3137
3112 3113 3115 3116 3118 3119 3120 3122 3124 3126 3128 3130 3132 3134 3136 3137 3138 3140 3141 3142 3143 3145 3147 3148 3150 3151 3152 3154 3155 3156 3157 3158 3158 3159 3160 3160 3160 3159 3157 3156 3156 3155 3154 3152 3150 3150 3150 3151 3152 3153 3153 3153 3153 3152 3152 3152 3152 3152 3152 3152 3152 3152 3152 3151 3151 3150 3150 3150 3151 3151 3150 3149 3148 3147 3146 3144 3143 3142 3140 3139 3138 3136 3134 3133 3133
3109 3110 3111 3112 3114 3115 3117 3118 3120 3121 3123 3125 3127 3129 3131 3132 3134 3135 3136 3138 3139 3141 3142 3144 3146 3147 3149 3150 3151 3152 3153 3154 3155 3156 3156 3156 3156 3155 3153 3152 3151 3149 3148 3147 3144 3142 3144 3146 3148 3149 3149 3149 3149 3149 3149 3149 3148 3148 3148 3149 3149 3148 3148 3148 3147 3147 3146 3147 3147 3147 3146 3145 3145 3143 3142 3141 3140 3138 3137 3136 3134 3132 3129 3128 3127
3106 3107 3108 3109 3110 3111 3113 3114 3115 3117 3118 3119 3122 3124 3126 3127 3129 3131 3132 3133 3134 3136 3138 3140 3141 3143 3145 3146 3147 3148 3150 3151 3152 3153 3153 3153 3153 3151 3149 3148 3145 3142 3143 3143 3140 3139 3140 3142 3144 3145 3145 3145 3146 3146 3145 3145 3144 3144 3145 3145 3145 3144 3144 3144 3143 3143 3143 3142 3142 3141 3141 3141 3141 3140 3139 3137 3136 3135 3133 3132 3131 3128 3125 3123 3121
3103 3104 3105 3106 3107 3108 3109 3110 3111 3112 3113 3115 3117 3119 3121 3123 3124 3126 3127 3128 3130 3132 3134 3136 3137 3139 3141 3142 3143 3145 3146 3147 3148 3149 3149 3149 3149 3147 3146 3144 3140 3139 3140 3140 3139 3139 3139 3139 3140 3141 3142 3142 3142 3141 3141 3140 3140 3140 3141 3141 3140 3140 3140 3139 3139 3139 3140 3140 3140 3140 3139 3138 3138 3136 3135 3134 3132 3131 3129 3128 3126 3124 3121 3118 3116
3100 3101 3103 3103 3104 3105 3105 3106 3107 3108 3109 3110 3112 3114 3116 3118 3119 3121 3122 3124 3126 3128 3130 3131 3133 3134 3136 3138 3139 3140 3142 3143 3144 3145 3145 3145 3144 3143 3142 3141 3137 3136 3137 3136 3135 3137 3137 3136 3137 3138 3139 3140 3139 3137 3137 3136 3135 3137 3137 3136 3136 3136 3136 3135 3135 3136 3137 3137 3138 3138 3137 3136 3134 3133 3132 3130 3128 3127 3125 3123 3121 3118 3116 3114 3111
3097 3099 3100 3100 3100 3101 3102 3102 3103 3104 3105 3107 3108 3110 3111 3113 3114 3116 3118 3119 3121 3124 3125 3126 3128 3129 3131 3133 3134 3136 3138 3139 3140 3141 3141 3141 3140 3139 3139 3138 3134 3132 3134 3133 3132 3133 3133 3132 3134 3134 3135 3136 3135 3134 3133 3131 3131 3133 3133 3132 3131 3131 3131 3132 3132 3132 3132 3133 3134 3134 3133 3132 3130 3129 3128 3126 3124 3123 3121 3119 3116 3114 3112 3109 3107
3094 3095 3096 3096 3096 3097 3098 3099 3100 3101 3102 3103 3104 3105 3107 3108 3110 3111 3113 3114 3116 3118 3119 3121 3122 3124 3126 3127 3129 3131 3133 3134 3135 3136 3136 3136 3136 3135 3134 3134 3132 3130 3130 3130 3129 3129 3129 3129 3130 3130 3130 3131 3130 3129 3128 3127 3127 3128 3128 3127 3127 3127 3127 3128 3128 3128 3129 3130 3131 3130 3129 3128 3126 3125 3123 3121 3120 3119 3117 3115 3112 3110 3108 3105 3103
3089 3090 3091 3091 3092 3093 3095 3096 3096 3097 3098 3099 3100 3101 3102 3104 3105 3107 3108 3109 3110 3112 3113 3115 3116 3118 3120 3122 3124 3126 3127 3128 3130 3131 3131 3132 3132 3131 3130 3130 3129 3127 3126 3126 3126 3126 3125 3126 3126 3126 3126 3126 3125 3124 3123 3123 3123 3123 3123 3123 3123 3123 3123 3124 3124 3125 3126 3126 3127 3127 3126 3124 3123 3121 3119 3118 3116 3115 3113 3111 3109 3106 3104 3102 3100
3084 3085 3086 3087 3088 3089 3090 3091 3092 3092 3094 3095 3096 3097 3098 3098 3099 3101 3102 3104 3104 3105 3107 3109 3111 3112 3114 3116 3118 3120 3121 3123 3125 3126 3126 3127 3127 3127 3126 3126 3125 3123 3122 3122 3123 3122 3121 3121 3122 3122 3121 3120 3120 3119 3119 3119 3119 3119 3119 3119 3119 3119 3120 3121 3121 3122 3123 3123 3124 3124 3122 3120 3119 3117 3116 3114 3113 3111 3109 3107 3105 3103 3100 3098 3096
3078 3079 3080 3082 3083 3084 3085 3086 3087 3087 3088 3089 3090 3091 3093 3093 3093 3094 3096 3097 3099 3100 3101 3103 3105 3106 3108 3110 3112 3114 3116 3118 3120 3121 3121 3122 3123 3123 3122 3121 3120 3119 3118 3119 3118 3117 3116 3116 3116 3116 3115 3115 3115 3115 3115 3115 3115 3114 3113 3114 3115 3116 3117 3118 3118 3119 3119 3120 3120 3120 3118 3117 3116 3114 3113 3111 3109 3107 3105 3103 3101 3099 3097 3095 3093
3071 3072 3074 3075 3077 3078 3080 3080 3081 3081 3082 3082 3083 3084 3086 3086 3086 3088 3089 3090 3092 3094 3096 3098 3099 3101 3103 3105 3107 3109 3111 3113 3115 3116 3116 3117 3118 3117 3117 3116 3115 3114 3114 3114 3113 3112 3112 3112 3111 3111 3111 3111 3112 3112 3112 3112 3111 3110 3109 3111 3113 3114 3113 3114 3115 3115 3116 3116 3116 3116 3115 3114 3113 3112 3109 3107 3104 3102 3100 3099 3097 3095 3093 3091 3090
3066 3066 3067 3068 3070 3072 3073 3073 3074 3074 3074 3075 3076 3077 3078 3079 3080 3082 3083 3085 3087 3089 3091 3092 3094 3095 3097 3100 3102 3104 3106 3108 3109 3110 3111 3112 3112 3112 3111 3111 3110 3109 3109 3109 3109 3108 3107 3107 3107 3107 3107 3108 3109 3109 3108 3108 3107 3107 3108 3109 3110 3110 3110 3111 3112 3113 3114 3113 3113 3112 3112 3111 3110 3108 3105 3103 3101 3099 3097 3095 3094 3092 3090 3088 3087
3060 3061 3061 3062 3064 3064 3064 3065 3066 3066 3067 3068 3069 3070 3070 3070 3072 3075 3078 3079 3080 3082 3084 3085 3087 3089 3092 3094 3097 3099 3100 3102 3103 3105 3106 3107 3107 3107 3106 3106 3105 3105 3105 3105 3105 3104 3103 3103 3103 3103 3104 3105 3105 3105 3105 3105 3105 3105 3106 3106 3107 3107 3108 3108 3109 3110 3110 3110 3109 3110 3109 3108 3106 3104 3102 3100 3098 3096 3094 3092 3091 3090 3088 3086 3085
3055 3055 3056 3057 3057 3057 3057 3058 3059 3059 3060 3060 3061 3061 3062 3062 3064 3067 3071 3073 3073 3074 3076 3078 3081 3084 3087 3089 3092 3094 3095 3097 3099 3100 3102 3102 3102 3102 3102 3101 3101 3101 3101 3101 3100 3100 3099 3099 3099 3100 3101 3101 3101 3101 3102 3101 3101 3102 3103 3103 3104 3104 3105 3105 3106 3107 3107 3106 3106 3106 3105 3104 3102 3100 3099 3097 3095 3093 3091 3089 3088 3086 3085 3084 3082
3048 3049 3050 3050 3051 3051 3051 3051 3051 3051 3051 3051 3051 3051 3053 3055 3057 3059 3061 3065 3067 3068 3070 3073 3076 3078 3081 3084 3087 3089 3091 3093 3094 3095 3096 3097 3097 3097 3098 3097 3097 3097 3097 3097 3096 3095 3095 3095 3095 3096 3097 3097 3097 3098 3098 3098 3098 3098 3099 3100 3100 3101 3102 3102 3103 3104 3104 3103 3102 3102 3101 3100 3098 3096 3095 3093 3091 3089 3087 3086 3084 3083 3082 3080 3078
3041 3041 3041 3042 3043 3043 3043 3043 3043 3042 3040 3039 3040 3041 3043 3046 3049 3050 3052 3055 3058 3062 3066 3069 3071 3073 3075 3078 3082 3084 3086 3087 3088 3089 3090 3091 3092 3093 3093 3093 3093 3093 3093 3092 3092 3092 3092 3092 3092 3092 3093 3093 3094 3094 3095 3095 3095 3095 3096 3097 3097 3098 3099 3100 3100 3100 3100 3100 3099 3098 3097 3096 3094 3093 3091 3090 3088 3086 3084 3083 3081 3079 3078 3076 3074
3032 3032 3032 3033 3033 3033 3033 3033 3031 3028 3025 3025 3027 3030 3034 3037 3039 3041 3045 3046 3047 3053 3061 3065 3066 3068 3069 3072 3075 3079 3080 3081 3082 3084 3085 3086 3087 3087 3088 3088 3088 3089 3089 3088 3088 3088 3088 3089 3088 3089 3089 3090 3090 3091 3092 3092 3092 3093 3093 3094 3095 3096 3096 3097 3097 3096 3096 3096 3095 3095 3094 3092 3091 3089 3088 3086 3085 3084 3082 3080 3078 3076 3074 3072 3070
3024 3024 3024 3024 3024 3024 3024 3022 3019 3013 3007 3010 3015 3018 3022 3027 3029 3032 3038 3037 3036 3045 3057 3061 3061 3061 3063 3066 3070 3073 3075 3077 3078 3080 3081 3081 3082 3083 3083 3083 3084 3084 3084 3084 3084 3085 3085 3085 3085 3085 3086 3086 3087 3088 3089 3089 3089 3090 3091 3092 3092 3093 3093 3093 3092 3092 3092 3092 3092 3091 3090 3089 3087 3086 3084 3083 3082 3080 3078 3077 3075 3073 3071 3070 3068
3017 3017 3017 3016 3017 3018 3016 3014 3009 2992 2976 2982 3000 3010 3013 3017 3020 3024 3030 3029 3027 3037 3052 3057 3057 3057 3059 3063 3067 3069 3072 3074 3075 3076 3077 3077 3077 3078 3078 3079 3079 3080 3080 3081 3081 3081 3082 3082 3082 3082 3082 3083 3085 3086 3087 3087 3087 3088 3089 3089 3089 3089 3089 3089 3089 3089 3089 3089 3088 3087 3086 3085 3084 3082 3081 3079 3078 3076 3075 3073 3072 3070 3069 3067 3066
3010 3010 3010 3009 3010 3011 3008 3006 3002 2984 2969 2976 2992 2997 3001 3008 3013 3016 3021 3021 3021 3032 3046 3052 3054 3055 3058 3060 3063 3066 3069 3071 3072 3072 3072 3072 3072 3073 3074 3075 3075 3076 3077 3077 3078 3078 3079 3079 3079 3079 3079 3080 3082 3084 3084 3085 3085 3086 3086 3086 3086 3086 3085 3086 3086 3086 3086 3085 3084 3083 3082 3081 3080 3079 3078 3076 3075 3073 3072 3070 3069 3068 3066 3065 3063
3006 3006 3005 3004 3005 3006 3004 3001 2998 2992 2990 2995 2993 2981 2980 2993 3004 3010 3013 3014 3017 3030 3042 3048 3050 3053 3055 3058 3060 3063 3065 3067 3068 3068 3068 3068 3068 3070 3070 3071 3072 3073 3073 3074 3074 3075 3075 3076 3076 3077 3077 3078 3079 3080 3081 3082 3083 3083 3083 3083 3083 3083 3083 3083 3083 3083 3082 3082 3081 3080 3079 3078 3077 3076 3075 3073 3072 3070 3069 3067 3066 3065 3063 3062 3060
3006 3004 3004 3003 3003 3003 3002 3000 2997 2994 2996 3000 2996 2984 2978 2983 2993 3003 3009 3011 3017 3029 3038 3043 3046 3049 3051 3054 3057 3059 3061 3062 3062 3062 3063 3064 3065 3066 3067 3068 3069 3069 3069 3070 3070 3071 3072 3072 3073 3074 3075 3076 3077 3077 3078 3079 3080 3080 3080 3080 3080 3080 3080 3080 3080 3079 3079 3078 3077 3076 3076 3075 3073 3072 3071 3070 3068 3067 3066 3064 3063 3061 3060 3059 3057
3007 3006 3005 3004 3004 3004 3003 3002 2999 2996 2996 2998 2999 2997 2993 2993 2998 3006 3011 3015 3021 3030 3035 3039 3043 3045 3048 3051 3053 3054 3056 3057 3057 3058 3059 3060 3061 3062 3063 3064 3064 3064 3065 3066 3067 3068 3068 3069 3070 3071 3072 3073 3074 3074 3076 3076 3077 3077 3077 3077 3077 3077 3077 3077 3076 3076 3075 3074 3073 3072 3071 3070 3069 3068 3067 3066 3065 3064 3063 3062 3060 3059 3057 3056 3055
3008 3008 3008 3006 3005 3006 3007 3005 3002 3001 3001 3001 3003 3004 3005 3007 3010 3013 3016 3019 3024 3029 3032 3036 3039 3041 3044 3047 3049 3050 3052 3053 3053 3055 3056 3057 3058 3059 3059 3060 3060 3061 3062 3062 3063 3064 3065 3066 3068 3069 3069 3070 3071 3072 3073 3073 3073 3073 3073 3073 3074 3074 3073 3073 3072 3072 3071 3070 3069 3068 3067 3067 3066 3065 3064 3063 3062 3061 3060 3059 3058 3057 3055 3054 3052
3009 3009 3010 3009 3007 3007 3009 3009 3008 3006 3006 3007 3008 3010 3011 3013 3015 3017 3020 3022 3025 3027 3030 3033 3036 3038 3041 3044 3045 3047 3048 3050 3051 3053 3054 3055 3056 3056 3056 3057 3057 3058 3059 3060 3061 3062 3063 3064 3065 3066 3067 3067 3068 3069 3070 3070 3070 3070 3070 3070 3070 3070 3069 3069 3068 3068 3067 3066 3065 3065 3064 3063 3063 3062 3062 3061 3060 3059 3058 3057 3055 3054 3053 3052 3050
3011 3011 3011 3010 3010 3009 3010 3011 3011 3011 3011 3012 3013 3014 3015 3016 3017 3019 3021 3023 3024 3026 3029 3031 3034 3036 3039 3040 3042 3043 3045 3047 3049 3050 3051 3052 3053 3053 3053 3054 3055 3056 3057 3058 3059 3060 3061 3062 3063 3063 3064 3064 3065 3065 3066 3066 3066 3066 3066 3066 3066 3066 3066 3065 3065 3064 3063 3062 3062 3062 3061 3061 3060 3060 3059 3058 3057 3056 3055 3054 3053 3052 3051 3050 3049
3012 3012 3012 3011 3011 3011 3011 3012 3012 3013 3013 3014 3015 3016 3017 3017 3018 3019 3020 3021 3023 3025 3027 3029 3031 3034 3035 3037 3038 3040 3042 3044 3046 3047 3048 3049 3050 3050 3051 3052 3053 3054 3055 3055 3057 3058 3059 3059 3060 3060 3061 3061 3062 3062 3063 3063 3063 3063 3063 3062 3063 3063 3062 3062 3061 3060 3060 3059 3059 3059 3058 3058 3057 3057 3056 3055 3055 3054 3053 3052 3051 3050 3049 3048 3047
3012 3012 3012 3012 3012 3011 3012 3012 3012 3013 3013 3013 3014 3015 3015 3016 3017 3018 3019 3020 3022 3023 3025 3027 3029 3031 3033 3035 3037 3038 3040 3042 3043 3044 3046 3047 3047 3048 3049 3050 3050 3051 3052 3053 3055 3055 3056 3057 3057 3057 3058 3058 3059 3059 3060 3059 3059 3059 3059 3059 3059 3059 3059 3059 3058 3057 3056 3056 3056 3056 3056 3055 3055 3054 3054 3053 3053 3052 3051 3050 3049 3048 3047 3046 3045
3011 3011 3010 3011 3011 3011 3011 3012 3012 3013 3013 3013 3013 3014 3015 3015 3015 3016 3018 3019 3020 3022 3023 3025 3027 3029 3031 3034 3036 3037 3038 3040 3041 3043 3044 3044 3045 3045 3046 3047 3048 3049 3050 3051 3052 3052 3053 3054 3054 3054 3055 3055 3056 3056 3057 3056 3056 3056 3056 3056 3056 3056 3056 3055 3055 3054 3053 3053 3053 3053 3053 3053 3053 3053 3052 3051 3051 3050 3049 3048 3047 3046 3045 3044 3043
3010 3010 3009 3009 3009 3010 3010 3011 3012 3012 3012 3012 3013 3013 3014 3014 3015 3016 3017 3019 3020 3021 3022 3024 3026 3028 3030 3032 3034 3036 3037 3038 3039 3040 3041 3042 3043 3043 3044 3045 3046 3046 3047 3048 3049 3050 3050 3051 3051 3052 3052 3053 3053 3054 3053 3053 3053 3053 3053 3053 3053 3053 3053 3052 3051 3051 3051 3051 3051 3051 3051 3051 3051 3050 3050 3049 3048 3047 3046 3046 3045 3044 3043 3042 3041
3009 3009 3009 3008 3009 3009 3009 3010 3011 3011 3012 3012 3012 3013 3013 3014 3014 3015 3016 3018 3019 3020 3022 3023 3025 3026 3028 3030 3032 3034 3035 3036 3037 3038 3039 3040 3040 3041 3042 3043 3044 3044 3045 3046 3046 3047 3048 3048 3049 3049 3050 3050 3051 3051 3050 3050 3050 3050 3050 3050 3050 3050 3050 3049 3048 3048 3049 3049 3049 3049 3049 3049 3048 3048 3047 3046 3046 3045 3044 3043 3043 3042 3041 3040 3039
3008 3008 3008 3007 3007 3008 3008 3009 3010 3010 3011 3011 3011 3012 3012 3013 3013 3014 3015 3016 3017 3019 3020 3022 3023 3024 3026 3028 3030 3031 3032 3034 3034 3035 3036 3037 3038 3039 3040 3041 3042 3042 3043 3043 3044 3044 3045 3046 3046 3047 3047 3048 3048 3048 3047 3047 3047 3047 3047 3047 3047 3047 3047 3046 3046 3046 3046 3047 3047 3047 3046 3046 3046 3045 3044 3044 3043 3043 3042 3041 3040 3040 3039 3038 3037
3005 3005 3005 3006 3006 3006 3007 3008 3009 3009 3009 3010 3010 3010 3011 3012 3013 3014 3015 3016 3017 3018 3019 3021 3022 3023 3025 3026 3028 3029 3030 3031 3032 3033 3034 3035 3036 3037 3038 3039 3040 3041 3041 3041 3041 3042 3043 3043 3044 3044 3045 3045 3045 3045 3045 3045 3045 3044 3044 3045 3044 3044 3044 3043 3043 3044 3044 3044 3044 3044 3044 3044 3043 3043 3042 3042 3041 3040 3040 3039 3038 3037 3036 3036 3035
3002 3002 3002 3003 3003 3004 3005 3006 3007 3007 3008 3008 3009 3009 3010 3011 3012 3013 3014 3015 3016 3017 3019 3020 3021 3023 3024 3025 3026 3027 3028 3029 3030 3031 3032 3033 3034 3035 3036 3037 3038 3038 3039 3039 3039 3040 3041 3041 3041 3042 3042 3042 3042 3042 3042 3042 3042 3042 3042 3041 3041 3041 3041 3040 3040 3041 3041 3041 3042 3042 3042 3041 3041 3040 3040 3039 3039 3038 3037 3036 3035 3035 3034 3033 3033
3000 3000 3001 3001 3002 3002 3003 3004 3005 3005 3006 3007 3008 3008 3009 3009 3011 3012 3013 3014 3015 3016 3018 3019 3020 3021 3022 3023 3024 3024 3025 3027 3028 3029 3030 3031 3032 3033 3034 3035 3035 3036 3036 3037 3037 3038 3038 3038 3038 3039 3039 3039 3039 3039 3039 3039 3039 3039 3039 3039 3039 3038 3038 3038 3038 3039 3039 3039 3039 3039 3039 3039 3038 3038 3037 3037 3036 3035 3034 3034 3033 3032 3032 3031 3030
2999 2999 2999 3000 3000 3001 3001 3002 3002 3003 3004 3005 3005 3006 3007 3007 3008 3009 3011 3013 3013 3015 3016 3017 3018 3019 3020 3021 3022 3022 3023 3024 3026 3027 3028 3029 3030 3030 3031 3032 3032 3033 3034 3034 3035 3035 3036 3035 3036 3036 3036 3036 3036 3036 3036 3036 3036 3036 3036 3036 3036 3036 3036 3036 3036 3036 3036 3036 3036 3036 3036 3036 3035 3035 3034 3034 3033 3033 3032 3031 3031 3030 3029 3028 3028
2997 2998 2998 2998 2999 2999 2999 3000 3001 3002 3002 3002 3003 3004 3005 3005 3005 3007 3009 3011 3011 3012 3013 3014 3015 3016 3017 3019 3019 3020 3021 3022 3024 3025 3025 3026 3027 3028 3028 3029 3030 3031 3031 3032 3033 3033 3033 3033 3033 3033 3033 3033 3033 3033 3033 3033 3033 3033 3033 3033 3033 3033 3033 3033 3033 3034 3034 3034 3033 3033 3033 3033 3033 3032 3032 3031 3030 3030 3029 3028 3028 3027 3027 3026 3025